Location: Alpha Ridge Park
(39.3209°N, 76.9128°W)
Time: 02:16:17
(UTC-04:00)

BEESAT - Pass Details

Date: 06 July 2022
Orbit: 700 x 706 km, 98.6° (Epoch: 14 August)

Event Time Altitude Azimuth Distance (km) Brightness Sun altitude
Rises 23:11:09 0° 349° (NNW) 3,104 ? -21.9°
Reaches altitude 10° 23:15:49 10° 307° (NW) 2,180 ? -22.3°
Maximum altitude 23:16:20 10° 300° (WNW) 2,168 ? -22.4°
Drops below altitude 10° 23:16:51 10° 294° (WNW) 2,179 ? -22.4°
Sets 23:21:32 0° 252° (WSW) 3,092 ? -22.9°
